Regional Weather Roundup
Issued by NWS Burlington, VT

Home | Current Version | Previous Version | Text Only | Print | Product List | Glossary On
Versions: 1 2 3 4 5 6 7 8 9 10 11 12 13 14 15 16 17 18 19 20 21 22 23 24 25 26 27 28 29 30 31 32 33 34 35 36 37 38 39 40 41 42 43 44 45 46 47 48 49 50
000
ASUS41 KBTV 011510
RWRBTV
VERMONT REGIONAL WEATHER ROUNDUP
NATIONAL WEATHER SERVICE BURLINGTON VT
1100 AM EDT WED JUL 01 2015

NOTE: "FAIR" INDICATES FEW OR NO CLOUDS BELOW 12,000 FEET WITH NO
SIGNIFICANT WEATHER AND/OR OBSTRUCTIONS TO VISIBILITY.

* THESE REPORTS ARE NOT UNDER NWS QUALITY CONTROL AND/OR DO NOT
  REPORT WEATHER SUCH AS PRECIPITATION AND FOG.

VTZ001>019-011600-
_____VERMONT_____


CITY           SKY/WX    TMP DP  RH WIND       PRES   REMARKS
BURLINGTON     RAIN      67  63  87 SW3       29.69R FOG
MONTPELIER     LGT RAIN  63  60  90 S12       29.77F
MORRISVILLE    LGT RAIN  66  61  84 VRB3      29.74F
ST. JOHNSBURY*   N/A     64  61  90 MISG      29.74F
LYNDONVILLE*   RAIN      61  60  95 CALM      29.78F
MIDDLEBURY*    RAIN      66  66 100 S5        29.70S
RUTLAND*       CLOUDY    64  61  88 S7        29.74S
SPRINGFIELD    LGT RAIN  66  63  90 CALM      29.76S
HIGHGATE*      RAIN      64  63  94 S5        29.68S
NEWPORT*       RAIN      62  60  93 SE14G21   29.74F
BENNINGTON     LGT RAIN  68  62  81 W3        29.74S
SUTTON*          N/A     59 N/A N/A MISG        N/A

_____LAKE CHAMPLAIN_____


CITY           SKY/WX    TMP DP  RH WIND       PRES   REMARKS

$$

NYZ007-026>031-035-052-083-011600-
_____NORTHERN NEW YORK_____


CITY           SKY/WX    TMP DP  RH WIND       PRES   REMARKS
PLATTSBURGH    RAIN      64  63  96 S5        29.67S FOG
SARANAC LAKE   CLOUDY    65  61  87 SW8       29.69S
MASSENA        LGT RAIN  67  64  90 S5        29.64F
OGDENSBURG*    LGT RAIN  66  64  94 SW8       29.65R
POTSDAM*       RAIN      66  66 100 SW7       29.66R
WATERTOWN      FOG       62  61  96 SW12      29.70R VSB 1/2
FT DRUM        FOG       62  61  99 SW14G21   29.69R VSB 1
ALBANY         CLOUDY    70  65  84 S8        29.73S
GLENS FALLS    CLOUDY    67  64  90 S9        29.70F

$$
NHZ002-005-011-011600-
_____NEW HAMPSHIRE_____


CITY           SKY/WX    TMP DP  RH WIND       PRES   REMARKS
LEBANON        CLOUDY    66  62  87 SW3       29.75S
KEENE          CLOUDY    66  61  82 CALM      29.77S
MT WASHINGTON  RAIN      45  45 100 SE40G56     N/A  VSB 0
PLYMOUTH       HVY RAIN  64  64 100 SE3       29.78S
WHITEFIELD     LGT RAIN  64  57  78 VRB5      29.76F

$$

_____REGIONAL QUEBEC LOCATIONS_____


CITY           SKY/WX    TMP DP  RH WIND       PRES   REMARKS
MONTREAL       LGT RAIN  66  64  94 S9        29.64F
QUEBEC CITY    LGT RAIN  63  61  94 E10       29.75F FOG
SHERBROOKE     LGT RAIN  63  57  82 SE7       29.74F

_____REGIONAL ONTARIO LOCATIONS_____


CITY           SKY/WX    TMP DP  RH WIND       PRES   REMARKS
OTTAWA         LGT RAIN  64  64 100 VRB2      29.64F

______KEY______
VSB  - VISIBILITY IN MILES
WCI  - WIND CHILL INDEX
HX   - HEAT INDEX
$$
NNNN


USA.gov is the U.S. government's official web portal to all federal, state and local government web resources and services.